Time,TemperatureF,DewpointF,PressureIn,WindDirection,WindDirectionDegrees,WindSpeedMPH,WindSpeedGustMPH,Humidity,HourlyPrecipIn,Conditions,Clouds,dailyrainin,SoftwareType,DateUTC
2013-04-19 00:00:00,57.0,47.7,30.05,NNW,339,13.0,13.0,71,0.00,,,0.00,Wunderground v.1.15,2013-04-19 06:00:00,
2013-04-19 00:05:00,57.0,47.7,30.05,NNE,12,12.0,22.0,71,0.00,,,0.00,Wunderground v.1.15,2013-04-19 06:05:00,
2013-04-19 00:10:00,57.0,47.3,30.06,NE,36,12.0,22.0,70,0.00,,,0.00,Wunderground v.1.15,2013-04-19 06:10:00,
2013-04-19 00:15:00,57.0,47.3,30.06,North,6,13.0,22.0,70,0.00,,,0.00,Wunderground v.1.15,2013-04-19 06:15:00,
2013-04-19 00:20:00,56.9,47.2,30.06,NNE,21,13.0,13.0,70,0.00,,,0.00,Wunderground v.1.15,2013-04-19 06:20:00,
2013-04-19 00:25:00,56.9,47.2,30.07,NE,46,13.0,22.0,70,0.00,,,0.00,Wunderground v.1.15,2013-04-19 06:25:00,
2013-04-19 00:30:00,56.9,47.2,30.07,North,351,14.0,14.0,70,0.00,,,0.00,Wunderground v.1.15,2013-04-19 06:30:00,
2013-04-19 00:35:00,56.9,46.8,30.07,NNE,19,14.0,22.0,69,0.00,,,0.00,Wunderground v.1.15,2013-04-19 06:35:00,
2013-04-19 00:40:00,56.9,46.8,30.07,North,4,13.0,22.0,69,0.00,,,0.00,Wunderground v.1.15,2013-04-19 06:40:00,
2013-04-19 00:45:00,56.9,46.8,30.08,NE,41,12.0,22.0,69,0.00,,,0.00,Wunderground v.1.15,2013-04-19 06:45:00,
2013-04-19 00:50:00,56.9,46.8,30.08,ENE,72,12.0,12.0,69,0.00,,,0.00,Wunderground v.1.15,2013-04-19 06:50:00,
2013-04-19 00:55:00,57.0,46.5,30.08,NNW,340,13.0,13.0,68,0.00,,,0.00,Wunderground v.1.15,2013-04-19 06:55:00,
2013-04-19 01:00:00,57.1,45.8,30.08,North,6,15.0,15.0,66,0.00,,,0.00,Wunderground v.1.15,2013-04-19 07:00:00,
2013-04-19 01:05:00,57.1,45.8,30.08,North,4,15.0,23.0,66,0.00,,,0.00,Wunderground v.1.15,2013-04-19 07:05:00,
2013-04-19 01:10:00,57.2,45.5,30.09,North,360,16.0,23.0,65,0.00,,,0.00,Wunderground v.1.15,2013-04-19 07:10:00,
2013-04-19 01:15:00,57.2,45.9,30.09,NNW,347,16.0,23.0,66,0.00,,,0.00,Wunderground v.1.15,2013-04-19 07:15:00,
2013-04-19 01:20:00,57.2,45.5,30.09,NE,40,16.0,23.0,65,0.00,,,0.00,Wunderground v.1.15,2013-04-19 07:20:00,
2013-04-19 01:25:00,57.1,45.4,30.09,ENE,67,16.0,23.0,65,0.00,,,0.00,Wunderground v.1.15,2013-04-19 07:25:00,
2013-04-19 01:30:00,57.0,45.7,30.09,NE,42,15.0,23.0,66,0.00,,,0.00,Wunderground v.1.15,2013-04-19 07:30:00,
2013-04-19 01:35:00,56.9,45.7,30.09,NNE,19,14.0,23.0,66,0.00,,,0.00,Wunderground v.1.15,2013-04-19 07:35:00,
2013-04-19 01:40:00,56.9,45.7,30.09,WNW,297,14.0,14.0,66,0.00,,,0.00,Wunderground v.1.15,2013-04-19 07:40:00,
2013-04-19 01:45:00,56.8,46.0,30.09,NNE,32,13.0,23.0,67,0.00,,,0.00,Wunderground v.1.15,2013-04-19 07:45:00,
2013-04-19 01:50:00,56.8,45.6,30.09,North,6,13.0,13.0,66,0.00,,,0.00,Wunderground v.1.15,2013-04-19 07:50:00,
2013-04-19 01:55:00,56.8,45.2,30.09,North,6,14.0,18.0,65,0.00,,,0.00,Wunderground v.1.15,2013-04-19 07:55:00,
2013-04-19 02:00:00,56.8,45.2,30.08,North,6,14.0,23.0,65,0.00,,,0.00,Wunderground v.1.15,2013-04-19 08:00:00,
2013-04-19 02:05:00,56.8,44.7,30.08,NNE,12,14.0,28.0,64,0.00,,,0.00,Wunderground v.1.15,2013-04-19 08:05:00,
2013-04-19 02:10:00,56.8,44.7,30.08,North,8,15.0,28.0,64,0.00,,,0.00,Wunderground v.1.15,2013-04-19 08:10:00,
2013-04-19 02:15:00,56.8,44.7,30.08,NE,41,17.0,28.0,64,0.00,,,0.00,Wunderground v.1.15,2013-04-19 08:15:00,
2013-04-19 02:20:00,56.8,44.7,30.09,NNW,336,19.0,19.0,64,0.00,,,0.00,Wunderground v.1.15,2013-04-19 08:20:00,
2013-04-19 02:25:00,56.7,45.1,30.09,North,1,17.0,28.0,65,0.00,,,0.00,Wunderground v.1.15,2013-04-19 08:25:00,
2013-04-19 02:30:00,56.6,44.6,30.09,NNE,12,15.0,15.0,64,0.00,,,0.00,Wunderground v.1.15,2013-04-19 08:30:00,
2013-04-19 02:35:00,56.6,45.0,30.10,NE,48,14.0,28.0,65,0.00,,,0.00,Wunderground v.1.15,2013-04-19 08:35:00,
2013-04-19 02:45:00,56.5,44.5,30.09,North,11,13.0,28.0,64,0.00,,,0.00,Wunderground v.1.15,2013-04-19 08:45:00,
2013-04-19 02:50:00,56.4,44.0,30.10,NE,44,14.0,28.0,63,0.00,,,0.00,Wunderground v.1.15,2013-04-19 08:50:00,
2013-04-19 02:55:00,56.4,44.4,30.09,North,5,15.0,28.0,64,0.00,,,0.00,Wunderground v.1.15,2013-04-19 08:55:00,
2013-04-19 03:00:00,56.3,44.3,30.10,NNE,16,13.0,13.0,64,0.00,,,0.00,Wunderground v.1.15,2013-04-19 09:00:00,
2013-04-19 03:05:00,56.2,44.2,30.10,NNE,19,11.0,22.0,64,0.00,,,0.00,Wunderground v.1.15,2013-04-19 09:05:00,
2013-04-19 03:10:00,56.1,44.1,30.10,NW,316,12.0,22.0,64,0.00,,,0.00,Wunderground v.1.15,2013-04-19 09:10:00,
2013-04-19 03:15:00,56.0,44.0,30.10,NNE,25,12.0,22.0,64,0.00,,,0.00,Wunderground v.1.15,2013-04-19 09:15:00,
2013-04-19 03:20:00,56.0,43.6,30.10,NNE,16,13.0,24.0,63,0.00,,,0.00,Wunderground v.1.15,2013-04-19 09:20:00,
2013-04-19 03:25:00,55.9,43.1,30.10,North,357,15.0,24.0,62,0.00,,,0.00,Wunderground v.1.15,2013-04-19 09:25:00,
2013-04-19 03:35:00,55.7,43.7,30.10,NNE,28,13.0,22.0,64,0.00,,,0.00,Wunderground v.1.15,2013-04-19 09:35:00,
2013-04-19 03:40:00,55.5,44.3,30.10,NNE,25,11.0,11.0,66,0.00,,,0.00,Wunderground v.1.15,2013-04-19 09:40:00,
2013-04-19 03:45:00,55.3,44.1,30.11,NE,38,10.0,22.0,66,0.00,,,0.00,Wunderground v.1.15,2013-04-19 09:45:00,
2013-04-19 03:50:00,55.3,43.3,30.10,NNE,16,13.0,22.0,64,0.00,,,0.00,Wunderground v.1.15,2013-04-19 09:50:00,
2013-04-19 03:55:00,55.1,42.7,30.10,NNW,345,16.0,22.0,63,0.00,,,0.00,Wunderground v.1.15,2013-04-19 09:55:00,
2013-04-19 04:05:00,55.0,41.8,30.11,North,8,16.0,26.0,61,0.00,,,0.00,Wunderground v.1.15,2013-04-19 10:05:00,
2013-04-19 04:10:00,54.9,41.7,30.11,NW,321,16.0,26.0,61,0.00,,,0.00,Wunderground v.1.15,2013-04-19 10:10:00,
2013-04-19 04:15:00,54.8,41.6,30.11,NNE,27,17.0,26.0,61,0.00,,,0.00,Wunderground v.1.15,2013-04-19 10:15:00,
2013-04-19 04:20:00,54.7,41.1,30.11,North,6,19.0,26.0,60,0.00,,,0.00,Wunderground v.1.15,2013-04-19 10:20:00,
2013-04-19 04:25:00,54.7,41.1,30.11,NW,323,18.0,26.0,60,0.00,,,0.00,Wunderground v.1.15,2013-04-19 10:25:00,
2013-04-19 04:30:00,54.6,41.0,30.12,NNE,27,18.0,18.0,60,0.00,,,0.00,Wunderground v.1.15,2013-04-19 10:30:00,
2013-04-19 04:35:00,54.6,41.0,30.11,NE,47,18.0,26.0,60,0.00,,,0.00,Wunderground v.1.15,2013-04-19 10:35:00,
2013-04-19 04:40:00,54.5,40.9,30.12,North,1,17.0,26.0,60,0.00,,,0.00,Wunderground v.1.15,2013-04-19 10:40:00,
2013-04-19 04:45:00,54.4,40.8,30.12,NNE,33,15.0,26.0,60,0.00,,,0.00,Wunderground v.1.15,2013-04-19 10:45:00,
2013-04-19 04:50:00,54.3,41.1,30.12,NNE,19,13.0,13.0,61,0.00,,,0.00,Wunderground v.1.15,2013-04-19 10:50:00,
2013-04-19 04:55:00,54.2,40.2,30.12,NNE,32,14.0,14.0,59,0.00,,,0.00,Wunderground v.1.15,2013-04-19 10:55:00,
2013-04-19 05:00:00,54.1,40.5,30.12,NNE,33,16.0,16.0,60,0.00,,,0.00,Wunderground v.1.15,2013-04-19 11:00:00,
2013-04-19 05:05:00,54.0,40.4,30.13,North,11,15.0,27.0,60,0.00,,,0.00,Wunderground v.1.15,2013-04-19 11:05:00,
2013-04-19 05:10:00,53.9,40.3,30.13,NE,39,14.0,14.0,60,0.00,,,0.00,Wunderground v.1.15,2013-04-19 11:10:00,
2013-04-19 05:15:00,53.8,39.8,30.13,North,4,14.0,24.0,59,0.00,,,0.00,Wunderground v.1.15,2013-04-19 11:15:00,
2013-04-19 05:25:00,53.7,39.7,30.14,North,1,16.0,27.0,59,0.00,,,0.00,Wunderground v.1.15,2013-04-19 11:25:00,
2013-04-19 05:30:00,53.6,40.0,30.14,NNE,32,16.0,16.0,60,0.00,,,0.00,Wunderground v.1.15,2013-04-19 11:30:00,
2013-04-19 05:35:00,53.5,39.9,30.14,NNE,18,14.0,17.0,60,0.00,,,0.00,Wunderground v.1.15,2013-04-19 11:35:00,
2013-04-19 05:40:00,53.5,40.4,30.14,NNE,16,13.0,27.0,61,0.00,,,0.00,Wunderground v.1.15,2013-04-19 11:40:00,
2013-04-19 05:45:00,53.4,39.9,30.14,NNE,29,14.0,27.0,60,0.00,,,0.00,Wunderground v.1.15,2013-04-19 11:45:00,
2013-04-19 05:50:00,53.4,39.4,30.15,North,354,15.0,27.0,59,0.00,,,0.00,Wunderground v.1.15,2013-04-19 11:50:00,
2013-04-19 05:55:00,53.4,39.0,30.15,NNE,27,17.0,27.0,58,0.00,,,0.00,Wunderground v.1.15,2013-04-19 11:55:00,
2013-04-19 06:00:00,53.3,38.9,30.15,NNE,25,17.0,17.0,58,0.00,,,0.00,Wunderground v.1.15,2013-04-19 12:00:00,
2013-04-19 06:05:00,53.3,38.9,30.15,NNE,16,16.0,20.0,58,0.00,,,0.00,Wunderground v.1.15,2013-04-19 12:05:00,
2013-04-19 06:10:00,53.2,39.2,30.16,NE,53,16.0,16.0,59,0.00,,,0.00,Wunderground v.1.15,2013-04-19 12:10:00,
2013-04-19 06:15:00,53.0,38.6,30.16,NE,39,17.0,22.0,58,0.00,,,0.00,Wunderground v.1.15,2013-04-19 12:15:00,
2013-04-19 06:20:00,53.0,38.6,30.16,NNW,348,17.0,17.0,58,0.00,,,0.00,Wunderground v.1.15,2013-04-19 12:20:00,
2013-04-19 06:25:00,53.0,38.6,30.16,North,4,19.0,22.0,58,0.00,,,0.00,Wunderground v.1.15,2013-04-19 12:25:00,
2013-04-19 06:30:00,53.0,38.6,30.17,NNE,26,17.0,26.0,58,0.00,,,0.00,Wunderground v.1.15,2013-04-19 12:30:00,
2013-04-19 06:35:00,53.0,38.2,30.17,North,9,17.0,26.0,57,0.00,,,0.00,Wunderground v.1.15,2013-04-19 12:35:00,
2013-04-19 06:40:00,53.0,37.7,30.17,North,6,20.0,20.0,56,0.00,,,0.00,Wunderground v.1.15,2013-04-19 12:40:00,
2013-04-19 06:45:00,53.0,38.2,30.17,North,352,20.0,26.0,57,0.00,,,0.00,Wunderground v.1.15,2013-04-19 12:45:00,
2013-04-19 06:50:00,52.9,38.5,30.17,North,6,16.0,26.0,58,0.00,,,0.00,Wunderground v.1.15,2013-04-19 12:50:00,
2013-04-19 06:55:00,53.0,39.0,30.18,NNW,335,14.0,26.0,59,0.00,,,0.00,Wunderground v.1.15,2013-04-19 12:55:00,
2013-04-19 07:00:00,53.0,39.5,30.18,NNW,348,13.0,13.0,60,0.00,,,0.00,Wunderground v.1.15,2013-04-19 13:00:00,
2013-04-19 07:05:00,52.9,39.0,30.18,NNW,348,12.0,27.0,59,0.00,,,0.00,Wunderground v.1.15,2013-04-19 13:05:00,
2013-04-19 07:10:00,52.8,38.4,30.19,NNW,336,13.0,27.0,58,0.00,,,0.00,Wunderground v.1.15,2013-04-19 13:10:00,
2013-04-19 07:20:00,52.9,37.6,30.19,NNW,341,16.0,16.0,56,0.00,,,0.00,Wunderground v.1.15,2013-04-19 13:20:00,
2013-04-19 07:25:00,52.9,38.1,30.19,North,354,15.0,27.0,57,0.00,,,0.00,Wunderground v.1.15,2013-04-19 13:25:00,
2013-04-19 07:30:00,52.9,38.1,30.19,NNE,25,14.0,14.0,57,0.00,,,0.00,Wunderground v.1.15,2013-04-19 13:30:00,
2013-04-19 07:35:00,53.0,38.2,30.19,NNW,341,13.0,27.0,57,0.00,,,0.00,Wunderground v.1.15,2013-04-19 13:35:00,
2013-04-19 07:40:00,53.2,37.9,30.20,NNE,15,13.0,27.0,56,0.00,,,0.00,Wunderground v.1.15,2013-04-19 13:40:00,
2013-04-19 07:45:00,53.4,37.2,30.21,NNE,21,13.0,27.0,54,0.00,,,0.00,Wunderground v.1.15,2013-04-19 13:45:00,
2013-04-19 07:50:00,53.6,37.3,30.21,NW,321,13.0,27.0,54,0.00,,,0.00,Wunderground v.1.15,2013-04-19 13:50:00,
2013-04-19 07:55:00,53.6,36.9,30.21,NNE,18,14.0,27.0,53,0.00,,,0.00,Wunderground v.1.15,2013-04-19 13:55:00,
2013-04-19 08:00:00,53.7,37.4,30.22,NNE,32,14.0,14.0,54,0.00,,,0.00,Wunderground v.1.15,2013-04-19 14:00:00,
2013-04-19 08:05:00,53.8,37.1,30.23,North,6,11.0,23.0,53,0.00,,,0.00,Wunderground v.1.15,2013-04-19 14:05:00,
2013-04-19 08:10:00,53.9,37.6,30.23,NE,47,10.0,23.0,54,0.00,,,0.00,Wunderground v.1.15,2013-04-19 14:10:00,
2013-04-19 08:15:00,54.0,37.2,30.22,NNW,336,10.0,23.0,53,0.00,,,0.00,Wunderground v.1.15,2013-04-19 14:15:00,
2013-04-19 08:20:00,54.0,37.2,30.23,NNW,328,10.0,10.0,53,0.00,,,0.00,Wunderground v.1.15,2013-04-19 14:20:00,
2013-04-19 08:25:00,53.9,36.7,30.23,NNE,27,11.0,16.0,52,0.00,,,0.00,Wunderground v.1.15,2013-04-19 14:25:00,
2013-04-19 08:30:00,53.8,36.1,30.24,NNW,342,12.0,12.0,51,0.00,,,0.00,Wunderground v.1.15,2013-04-19 14:30:00,
2013-04-19 08:35:00,53.8,36.1,30.24,NNW,331,12.0,23.0,51,0.00,,,0.00,Wunderground v.1.15,2013-04-19 14:35:00,
2013-04-19 08:40:00,53.7,36.5,30.23,NNE,16,13.0,13.0,52,0.00,,,0.00,Wunderground v.1.15,2013-04-19 14:40:00,
2013-04-19 08:45:00,53.8,36.6,30.24,NNE,28,12.0,23.0,52,0.00,,,0.00,Wunderground v.1.15,2013-04-19 14:45:00,
2013-04-19 08:50:00,53.8,36.1,30.24,NNE,12,10.0,23.0,51,0.00,,,0.00,Wunderground v.1.15,2013-04-19 14:50:00,
2013-04-19 08:55:00,53.9,36.7,30.24,NE,37,12.0,23.0,52,0.00,,,0.00,Wunderground v.1.15,2013-04-19 14:55:00,
2013-04-19 09:00:00,54.0,36.8,30.23,North,8,12.0,23.0,52,0.00,,,0.00,Wunderground v.1.15,2013-04-19 15:00:00,
2013-04-19 09:05:00,54.2,35.9,30.23,NE,39,12.0,23.0,50,0.00,,,0.00,Wunderground v.1.15,2013-04-19 15:05:00,
2013-04-19 09:10:00,54.3,35.5,30.23,NNW,347,14.0,21.0,49,0.00,,,0.00,Wunderground v.1.15,2013-04-19 15:10:00,
2013-04-19 09:15:00,54.6,34.8,30.24,NNW,348,14.0,21.0,47,0.00,,,0.00,Wunderground v.1.15,2013-04-19 15:15:00,
2013-04-19 09:20:00,54.8,34.9,30.24,NNW,335,13.0,13.0,47,0.00,,,0.00,Wunderground v.1.15,2013-04-19 15:20:00,
2013-04-19 09:25:00,55.0,34.0,30.24,NNE,21,13.0,21.0,45,0.00,,,0.00,Wunderground v.1.15,2013-04-19 15:25:00,
2013-04-19 09:30:00,55.1,33.6,30.24,NNE,32,13.0,21.0,44,0.00,,,0.00,Wunderground v.1.15,2013-04-19 15:30:00,
2013-04-19 09:35:00,55.2,33.6,30.25,NE,34,13.0,21.0,44,0.00,,,0.00,Wunderground v.1.15,2013-04-19 15:35:00,
2013-04-19 09:45:00,55.3,33.2,30.26,NW,316,12.0,21.0,43,0.00,,,0.00,Wunderground v.1.15,2013-04-19 15:45:00,
2013-04-19 09:50:00,55.4,33.3,30.26,NE,38,11.0,21.0,43,0.00,,,0.00,Wunderground v.1.15,2013-04-19 15:50:00,
2013-04-19 09:55:00,55.6,32.8,30.26,NW,325,10.0,21.0,42,0.00,,,0.00,Wunderground v.1.15,2013-04-19 15:55:00,
2013-04-19 10:00:00,55.5,33.3,30.27,NNE,27,11.0,21.0,43,0.00,,,0.00,Wunderground v.1.15,2013-04-19 16:00:00,
2013-04-19 10:05:00,55.5,33.9,30.27,North,4,11.0,21.0,44,0.00,,,0.00,Wunderground v.1.15,2013-04-19 16:05:00,
2013-04-19 10:10:00,55.6,34.0,30.27,NNE,12,10.0,19.0,44,0.00,,,0.00,Wunderground v.1.15,2013-04-19 16:10:00,
2013-04-19 10:15:00,55.6,34.6,30.27,NNE,30,10.0,19.0,45,0.00,,,0.00,Wunderground v.1.15,2013-04-19 16:15:00,
2013-04-19 10:20:00,55.6,34.6,30.27,NNE,13,11.0,19.0,45,0.00,,,0.00,Wunderground v.1.15,2013-04-19 16:20:00,
2013-04-19 10:25:00,55.7,34.7,30.28,NNE,26,11.0,19.0,45,0.00,,,0.00,Wunderground v.1.15,2013-04-19 16:25:00,
2013-04-19 10:30:00,55.9,35.4,30.27,NNW,347,11.0,19.0,46,0.00,,,0.00,Wunderground v.1.15,2013-04-19 16:30:00,
2013-04-19 10:35:00,56.1,33.3,30.28,NNE,18,14.0,19.0,42,0.00,,,0.00,Wunderground v.1.15,2013-04-19 16:35:00,
2013-04-19 10:40:00,56.3,32.9,30.28,NNE,25,15.0,15.0,41,0.00,,,0.00,Wunderground v.1.15,2013-04-19 16:40:00,
2013-04-19 10:45:00,56.4,33.0,30.28,NNE,13,14.0,19.0,41,0.00,,,0.00,Wunderground v.1.15,2013-04-19 16:45:00,
2013-04-19 10:55:00,56.6,32.5,30.28,NNE,30,13.0,19.0,40,0.00,,,0.00,Wunderground v.1.15,2013-04-19 16:55:00,
2013-04-19 11:00:00,56.7,33.2,30.28,NE,43,12.0,19.0,41,0.00,,,0.00,Wunderground v.1.15,2013-04-19 17:00:00,
2013-04-19 11:05:00,56.6,31.9,30.28,North,9,13.0,21.0,39,0.00,,,0.00,Wunderground v.1.15,2013-04-19 17:05:00,
2013-04-19 11:15:00,57.1,33.0,30.28,NNE,27,13.0,21.0,40,0.00,,,0.00,Wunderground v.1.15,2013-04-19 17:15:00,
2013-04-19 11:20:00,57.3,33.8,30.28,NE,43,12.0,21.0,41,0.00,,,0.00,Wunderground v.1.15,2013-04-19 17:20:00,
2013-04-19 11:25:00,57.1,33.0,30.27,NE,51,13.0,21.0,40,0.00,,,0.00,Wunderground v.1.15,2013-04-19 17:25:00,
2013-04-19 11:30:00,57.1,33.6,30.27,NW,322,12.0,12.0,41,0.00,,,0.00,Wunderground v.1.15,2013-04-19 17:30:00,
2013-04-19 11:40:00,58.7,34.4,30.27,North,354,10.0,21.0,40,0.00,,,0.00,Wunderground v.1.15,2013-04-19 17:40:00,
2013-04-19 11:45:00,58.7,33.8,30.27,NNE,27,11.0,21.0,39,0.00,,,0.00,Wunderground v.1.15,2013-04-19 17:45:00,
2013-04-19 11:50:00,59.1,34.8,30.26,North,11,11.0,21.0,40,0.00,,,0.00,Wunderground v.1.15,2013-04-19 17:50:00,
2013-04-19 11:55:00,59.5,33.2,30.27,NE,43,13.0,21.0,37,0.00,,,0.00,Wunderground v.1.15,2013-04-19 17:55:00,
2013-04-19 12:00:00,59.4,34.4,30.26,NNW,341,13.0,21.0,39,0.00,,,0.00,Wunderground v.1.15,2013-04-19 18:00:00,
2013-04-19 12:05:00,59.7,34.0,30.26,NE,41,12.0,21.0,38,0.00,,,0.00,Wunderground v.1.15,2013-04-19 18:05:00,
2013-04-19 12:15:00,60.1,34.4,30.25,NNE,32,11.0,21.0,38,0.00,,,0.00,Wunderground v.1.15,2013-04-19 18:15:00,
2013-04-19 12:20:00,60.4,35.3,30.26,NE,49,12.0,12.0,39,0.00,,,0.00,Wunderground v.1.15,2013-04-19 18:20:00,
2013-04-19 12:25:00,60.9,35.1,30.25,NNE,16,10.0,21.0,38,0.00,,,0.00,Wunderground v.1.15,2013-04-19 18:25:00,
2013-04-19 12:30:00,61.0,35.8,30.25,NNE,12,9.0,21.0,39,0.00,,,0.00,Wunderground v.1.15,2013-04-19 18:30:00,
2013-04-19 12:35:00,61.4,35.5,30.25,NNE,32,10.0,21.0,38,0.00,,,0.00,Wunderground v.1.15,2013-04-19 18:35:00,
2013-04-19 12:40:00,62.1,35.5,30.24,NE,43,10.0,21.0,37,0.00,,,0.00,Wunderground v.1.15,2013-04-19 18:40:00,
2013-04-19 12:45:00,61.8,35.9,30.24,NW,318,9.0,21.0,38,0.00,,,0.00,Wunderground v.1.15,2013-04-19 18:45:00,
2013-04-19 12:50:00,62.0,36.1,30.24,NE,37,7.0,7.0,38,0.00,,,0.00,Wunderground v.1.15,2013-04-19 18:50:00,
2013-04-19 12:55:00,61.8,39.6,30.23,ENE,64,6.0,21.0,44,0.00,,,0.00,Wunderground v.1.15,2013-04-19 18:55:00,
2013-04-19 13:00:00,61.1,40.1,30.23,East,79,7.0,21.0,46,0.00,,,0.00,Wunderground v.1.15,2013-04-19 19:00:00,
2013-04-19 13:05:00,60.9,41.6,30.23,ENE,65,7.0,21.0,49,0.00,,,0.00,Wunderground v.1.15,2013-04-19 19:05:00,
2013-04-19 13:15:00,60.7,41.9,30.22,East,96,8.0,13.0,50,0.00,,,0.00,Wunderground v.1.15,2013-04-19 19:15:00,
2013-04-19 13:20:00,60.1,40.9,30.21,ESE,111,8.0,13.0,49,0.00,,,0.00,Wunderground v.1.15,2013-04-19 19:20:00,
2013-04-19 13:25:00,60.3,41.6,30.21,East,94,7.0,13.0,50,0.00,,,0.00,Wunderground v.1.15,2013-04-19 19:25:00,
2013-04-19 13:30:00,61.0,41.2,30.21,East,88,6.0,6.0,48,0.00,,,0.00,Wunderground v.1.15,2013-04-19 19:30:00,
2013-04-19 13:35:00,61.1,41.8,30.20,SE,126,5.0,7.0,49,0.00,,,0.00,Wunderground v.1.15,2013-04-19 19:35:00,
2013-04-19 13:40:00,61.4,41.5,30.20,East,99,5.0,13.0,48,0.00,,,0.00,Wunderground v.1.15,2013-04-19 19:40:00,
2013-04-19 13:45:00,62.0,42.1,30.20,ESE,114,5.0,13.0,48,0.00,,,0.00,Wunderground v.1.15,2013-04-19 19:45:00,
2013-04-19 13:50:00,62.4,43.5,30.20,SE,134,5.0,13.0,50,0.00,,,0.00,Wunderground v.1.15,2013-04-19 19:50:00,
2013-04-19 13:55:00,62.7,42.7,30.19,ESE,122,5.0,13.0,48,0.00,,,0.00,Wunderground v.1.15,2013-04-19 19:55:00,
2013-04-19 14:00:00,63.1,43.1,30.19,ESE,117,5.0,13.0,48,0.00,,,0.00,Wunderground v.1.15,2013-04-19 20:00:00,
2013-04-19 14:05:00,62.6,41.5,30.19,East,98,6.0,13.0,46,0.00,,,0.00,Wunderground v.1.15,2013-04-19 20:05:00,
2013-04-19 14:10:00,62.3,41.8,30.19,East,99,7.0,7.0,47,0.00,,,0.00,Wunderground v.1.15,2013-04-19 20:10:00,
2013-04-19 14:15:00,62.0,40.4,30.19,NE,56,7.0,11.0,45,0.00,,,0.00,Wunderground v.1.15,2013-04-19 20:15:00,
2013-04-19 14:20:00,62.5,40.3,30.19,ESE,123,5.0,11.0,44,0.00,,,0.00,Wunderground v.1.15,2013-04-19 20:20:00,
2013-04-19 14:25:00,62.4,39.6,30.18,ESE,111,5.0,11.0,43,0.00,,,0.00,Wunderground v.1.15,2013-04-19 20:25:00,
2013-04-19 14:30:00,62.5,40.9,30.18,SE,133,5.0,5.0,45,0.00,,,0.00,Wunderground v.1.15,2013-04-19 20:30:00,
2013-04-19 14:35:00,63.1,40.8,30.18,ESE,115,5.0,6.0,44,0.00,,,0.00,Wunderground v.1.15,2013-04-19 20:35:00,
2013-04-19 14:40:00,63.2,40.3,30.18,ESE,112,5.0,5.0,43,0.00,,,0.00,Wunderground v.1.15,2013-04-19 20:40:00,
2013-04-19 14:45:00,63.5,42.9,30.17,ESE,111,6.0,7.0,47,0.00,,,0.00,Wunderground v.1.15,2013-04-19 20:45:00,
2013-04-19 14:50:00,63.8,43.7,30.17,SE,146,5.0,11.0,48,0.00,,,0.00,Wunderground v.1.15,2013-04-19 20:50:00,
2013-04-19 14:55:00,63.8,43.2,30.17,East,101,5.0,11.0,47,0.00,,,0.00,Wunderground v.1.15,2013-04-19 20:55:00,
2013-04-19 15:00:00,63.5,42.3,30.16,East,92,6.0,6.0,46,0.00,,,0.00,Wunderground v.1.15,2013-04-19 21:00:00,
2013-04-19 15:05:00,63.4,42.8,30.16,SE,136,7.0,7.0,47,0.00,,,0.00,Wunderground v.1.15,2013-04-19 21:05:00,
2013-04-19 15:10:00,64.0,43.9,30.16,SSE,156,7.0,7.0,48,0.00,,,0.00,Wunderground v.1.15,2013-04-19 21:10:00,
2013-04-19 15:20:00,63.7,44.7,30.15,ESE,122,6.0,6.0,50,0.00,,,0.00,Wunderground v.1.15,2013-04-19 21:20:00,
2013-04-19 15:25:00,63.9,43.3,30.15,SE,141,6.0,12.0,47,0.00,,,0.00,Wunderground v.1.15,2013-04-19 21:25:00,
2013-04-19 15:30:00,63.9,44.4,30.15,ESE,111,5.0,12.0,49,0.00,,,0.00,Wunderground v.1.15,2013-04-19 21:30:00,
2013-04-19 15:35:00,64.4,45.3,30.15,East,86,6.0,12.0,50,0.00,,,0.00,Wunderground v.1.15,2013-04-19 21:35:00,
2013-04-19 15:40:00,64.2,45.7,30.15,ESE,103,5.0,5.0,51,0.00,,,0.00,Wunderground v.1.15,2013-04-19 21:40:00,
2013-04-19 15:45:00,64.5,46.0,30.15,SE,130,5.0,9.0,51,0.00,,,0.00,Wunderground v.1.15,2013-04-19 21:45:00,
2013-04-19 15:50:00,64.4,45.9,30.15,SSE,150,5.0,5.0,51,0.00,,,0.00,Wunderground v.1.15,2013-04-19 21:50:00,
2013-04-19 15:55:00,64.2,44.6,30.15,SE,124,6.0,7.0,49,0.00,,,0.00,Wunderground v.1.15,2013-04-19 21:55:00,
2013-04-19 16:00:00,64.5,47.0,30.15,SE,134,5.0,12.0,53,0.00,,,0.00,Wunderground v.1.15,2013-04-19 22:00:00,
2013-04-19 16:05:00,64.7,48.2,30.14,SE,135,6.0,12.0,55,0.00,,,0.00,Wunderground v.1.15,2013-04-19 22:05:00,
2013-04-19 16:15:00,64.4,46.9,30.14,SE,138,6.0,7.0,53,0.00,,,0.00,Wunderground v.1.15,2013-04-19 22:15:00,
2013-04-19 16:20:00,64.3,45.3,30.14,ESE,107,6.0,9.0,50,0.00,,,0.00,Wunderground v.1.15,2013-04-19 22:20:00,
2013-04-19 16:25:00,64.5,47.5,30.14,SSE,150,5.0,9.0,54,0.00,,,0.00,Wunderground v.1.15,2013-04-19 22:25:00,
2013-04-19 16:30:00,64.5,47.5,30.14,ENE,77,5.0,9.0,54,0.00,,,0.00,Wunderground v.1.15,2013-04-19 22:30:00,
2013-04-19 16:35:00,64.0,46.0,30.14,SSE,153,6.0,9.0,52,0.00,,,0.00,Wunderground v.1.15,2013-04-19 22:35:00,
2013-04-19 16:40:00,63.8,46.8,30.14,East,101,6.0,9.0,54,0.00,,,0.00,Wunderground v.1.15,2013-04-19 22:40:00,
2013-04-19 16:45:00,63.8,47.3,30.14,SE,135,6.0,9.0,55,0.00,,,0.00,Wunderground v.1.15,2013-04-19 22:45:00,
2013-04-19 16:55:00,63.9,46.9,30.14,SE,129,6.0,9.0,54,0.00,,,0.00,Wunderground v.1.15,2013-04-19 22:55:00,
2013-04-19 17:00:00,63.9,47.4,30.14,SSE,153,7.0,7.0,55,0.00,,,0.00,Wunderground v.1.15,2013-04-19 23:00:00,
2013-04-19 17:05:00,63.9,47.4,30.14,ESE,109,6.0,8.0,55,0.00,,,0.00,Wunderground v.1.15,2013-04-19 23:05:00,
2013-04-19 17:15:00,63.9,47.9,30.13,SE,142,6.0,11.0,56,0.00,,,0.00,Wunderground v.1.15,2013-04-19 23:15:00,
2013-04-19 17:20:00,64.0,47.5,30.13,SE,139,5.0,5.0,55,0.00,,,0.00,Wunderground v.1.15,2013-04-19 23:20:00,
2013-04-19 17:25:00,63.9,48.4,30.13,South,169,5.0,7.0,57,0.00,,,0.00,Wunderground v.1.15,2013-04-19 23:25:00,
2013-04-19 17:30:00,63.9,47.9,30.13,SE,136,5.0,5.0,56,0.00,,,0.00,Wunderground v.1.15,2013-04-19 23:30:00,
2013-04-19 17:35:00,64.0,46.5,30.13,SE,128,4.0,9.0,53,0.00,,,0.00,Wunderground v.1.15,2013-04-19 23:35:00,
2013-04-19 17:40:00,64.0,47.5,30.13,SE,127,4.0,11.0,55,0.00,,,0.00,Wunderground v.1.15,2013-04-19 23:40:00,
2013-04-19 17:45:00,64.1,48.1,30.13,SSE,150,5.0,11.0,56,0.00,,,0.00,Wunderground v.1.15,2013-04-19 23:45:00,
2013-04-19 17:50:00,63.8,47.3,30.13,SSE,159,5.0,11.0,55,0.00,,,0.00,Wunderground v.1.15,2013-04-19 23:50:00,
2013-04-19 17:55:00,63.9,46.4,30.13,SE,131,5.0,11.0,53,0.00,,,0.00,Wunderground v.1.15,2013-04-19 23:55:00,
2013-04-19 18:00:00,64.0,46.0,30.13,SSE,168,4.0,11.0,52,0.00,,,0.00,Wunderground v.1.15,2013-04-20 00:00:00,
2013-04-19 18:05:00,64.3,47.8,30.13,SSE,162,4.0,11.0,55,0.00,,,0.00,Wunderground v.1.15,2013-04-20 00:05:00,
2013-04-19 18:10:00,64.4,46.9,30.13,SSE,151,3.0,10.0,53,0.00,,,0.00,Wunderground v.1.15,2013-04-20 00:10:00,
2013-04-19 18:20:00,64.2,46.7,30.13,SE,146,4.0,4.0,53,0.00,,,0.00,Wunderground v.1.15,2013-04-20 00:20:00,
2013-04-19 18:25:00,64.2,46.2,30.13,SSE,168,4.0,10.0,52,0.00,,,0.00,Wunderground v.1.15,2013-04-20 00:25:00,
2013-04-19 18:30:00,64.1,48.1,30.14,South,169,3.0,10.0,56,0.00,,,0.00,Wunderground v.1.15,2013-04-20 00:30:00,
2013-04-19 18:35:00,63.9,47.9,30.14,SSE,168,4.0,10.0,56,0.00,,,0.00,Wunderground v.1.15,2013-04-20 00:35:00,
2013-04-19 18:40:00,63.6,47.1,30.13,SSE,159,4.0,10.0,55,0.00,,,0.00,Wunderground v.1.15,2013-04-20 00:40:00,
2013-04-19 18:45:00,63.2,46.8,30.14,SE,135,3.0,10.0,55,0.00,,,0.00,Wunderground v.1.15,2013-04-20 00:45:00,
2013-04-19 18:50:00,62.8,46.4,30.14,SSE,155,3.0,3.0,55,0.00,,,0.00,Wunderground v.1.15,2013-04-20 00:50:00,
2013-04-19 18:55:00,62.3,45.4,30.14,SE,144,3.0,10.0,54,0.00,,,0.00,Wunderground v.1.15,2013-04-20 00:55:00,
2013-04-19 19:00:00,62.0,47.0,30.14,SSE,148,3.0,10.0,58,0.00,,,0.00,Wunderground v.1.15,2013-04-20 01:00:00,
2013-04-19 19:05:00,61.8,46.4,30.14,South,169,3.0,10.0,57,0.00,,,0.00,Wunderground v.1.15,2013-04-20 01:05:00,
2013-04-19 19:10:00,61.6,46.7,30.14,South,169,3.0,3.0,58,0.00,,,0.00,Wunderground v.1.15,2013-04-20 01:10:00,
2013-04-19 19:15:00,61.5,47.5,30.15,ESE,121,3.0,6.0,60,0.00,,,0.00,Wunderground v.1.15,2013-04-20 01:15:00,
2013-04-19 19:20:00,61.5,47.5,30.15,SE,134,2.0,6.0,60,0.00,,,0.00,Wunderground v.1.15,2013-04-20 01:20:00,
2013-04-19 19:25:00,61.4,47.8,30.15,SE,145,2.0,6.0,61,0.00,,,0.00,Wunderground v.1.15,2013-04-20 01:25:00,
2013-04-19 19:30:00,61.1,46.2,30.15,SSE,158,2.0,6.0,58,0.00,,,0.00,Wunderground v.1.15,2013-04-20 01:30:00,
2013-04-19 19:35:00,61.1,47.1,30.15,SSE,150,2.0,6.0,60,0.00,,,0.00,Wunderground v.1.15,2013-04-20 01:35:00,
2013-04-19 19:40:00,61.1,47.5,30.15,SSE,148,2.0,6.0,61,0.00,,,0.00,Wunderground v.1.15,2013-04-20 01:40:00,
2013-04-19 19:45:00,61.0,47.4,30.15,South,169,2.0,6.0,61,0.00,,,0.00,Wunderground v.1.15,2013-04-20 01:45:00,
2013-04-19 19:55:00,60.9,47.8,30.16,South,169,2.0,6.0,62,0.00,,,0.00,Wunderground v.1.15,2013-04-20 01:55:00,
2013-04-19 20:00:00,61.0,47.9,30.16,SSE,153,2.0,2.0,62,0.00,,,0.00,Wunderground v.1.15,2013-04-20 02:00:00,
2013-04-19 20:05:00,60.9,48.2,30.16,SE,143,2.0,5.0,63,0.00,,,0.00,Wunderground v.1.15,2013-04-20 02:05:00,
2013-04-19 20:10:00,60.9,47.8,30.17,South,169,2.0,5.0,62,0.00,,,0.00,Wunderground v.1.15,2013-04-20 02:10:00,
2013-04-19 20:15:00,60.9,47.8,30.17,South,169,2.0,5.0,62,0.00,,,0.00,Wunderground v.1.15,2013-04-20 02:15:00,
2013-04-19 20:20:00,60.9,47.8,30.17,South,169,2.0,2.0,62,0.00,,,0.00,Wunderground v.1.15,2013-04-20 02:20:00,
2013-04-19 20:25:00,60.8,47.7,30.17,South,169,2.0,3.0,62,0.00,,,0.00,Wunderground v.1.15,2013-04-20 02:25:00,
2013-04-19 20:30:00,60.9,48.2,30.17,South,169,2.0,5.0,63,0.00,,,0.00,Wunderground v.1.15,2013-04-20 02:30:00,
2013-04-19 20:35:00,61.1,48.4,30.17,South,169,3.0,5.0,63,0.00,,,0.00,Wunderground v.1.15,2013-04-20 02:35:00,
2013-04-19 20:40:00,61.0,48.3,30.17,South,169,3.0,5.0,63,0.00,,,0.00,Wunderground v.1.15,2013-04-20 02:40:00,
2013-04-19 20:45:00,60.6,47.9,30.18,SE,135,2.0,5.0,63,0.00,,,0.00,Wunderground v.1.15,2013-04-20 02:45:00,
2013-04-19 20:50:00,59.9,47.7,30.18,South,169,1.0,5.0,64,0.00,,,0.00,Wunderground v.1.15,2013-04-20 02:50:00,
2013-04-19 21:00:00,58.9,47.6,30.18,South,169,0.0,5.0,66,0.00,,,0.00,Wunderground v.1.15,2013-04-20 03:00:00,
2013-04-19 21:05:00,58.5,47.6,30.18,South,169,0.0,5.0,67,0.00,,,0.00,Wunderground v.1.15,2013-04-20 03:05:00,
2013-04-19 21:10:00,58.4,47.9,30.18,South,169,0.0,2.0,68,0.00,,,0.00,Wunderground v.1.15,2013-04-20 03:10:00,
2013-04-19 21:15:00,58.2,48.1,30.18,South,169,0.0,2.0,69,0.00,,,0.00,Wunderground v.1.15,2013-04-20 03:15:00,
2013-04-19 21:20:00,58.3,48.6,30.18,South,169,0.0,2.0,70,0.00,,,0.00,Wunderground v.1.15,2013-04-20 03:20:00,
2013-04-19 21:25:00,58.6,49.2,30.18,South,169,0.0,2.0,71,0.00,,,0.00,Wunderground v.1.15,2013-04-20 03:25:00,
2013-04-19 21:30:00,57.9,48.2,30.18,South,169,0.0,2.0,70,0.00,,,0.00,Wunderground v.1.15,2013-04-20 03:30:00,
2013-04-19 21:35:00,57.6,48.3,30.19,South,169,0.0,2.0,71,0.00,,,0.00,Wunderground v.1.15,2013-04-20 03:35:00,
2013-04-19 21:40:00,57.1,47.8,30.19,South,169,0.0,2.0,71,0.00,,,0.00,Wunderground v.1.15,2013-04-20 03:40:00,
2013-04-19 21:45:00,57.2,48.3,30.19,South,169,0.0,2.0,72,0.00,,,0.00,Wunderground v.1.15,2013-04-20 03:45:00,
2013-04-19 21:50:00,57.4,48.8,30.19,South,169,0.0,2.0,73,0.00,,,0.00,Wunderground v.1.15,2013-04-20 03:50:00,
2013-04-19 21:55:00,57.1,48.5,30.19,SE,126,0.0,2.0,73,0.00,,,0.00,Wunderground v.1.15,2013-04-20 03:55:00,
2013-04-19 22:00:00,56.9,48.7,30.19,South,169,0.0,2.0,74,0.00,,,0.00,Wunderground v.1.15,2013-04-20 04:00:00,
2013-04-19 22:05:00,57.3,49.1,30.19,South,169,1.0,2.0,74,0.00,,,0.00,Wunderground v.1.15,2013-04-20 04:05:00,
2013-04-19 22:10:00,56.4,47.1,30.19,South,169,1.0,2.0,71,0.00,,,0.00,Wunderground v.1.15,2013-04-20 04:10:00,
2013-04-19 22:15:00,55.5,47.7,30.20,South,169,1.0,2.0,75,0.00,,,0.00,Wunderground v.1.15,2013-04-20 04:15:00,
2013-04-19 22:20:00,55.9,47.7,30.20,SSE,159,1.0,2.0,74,0.00,,,0.00,Wunderground v.1.15,2013-04-20 04:20:00,
2013-04-19 22:25:00,55.9,48.1,30.20,SSE,159,0.0,2.0,75,0.00,,,0.00,Wunderground v.1.15,2013-04-20 04:25:00,
2013-04-19 22:30:00,55.7,47.9,30.20,SSE,159,1.0,2.0,75,0.00,,,0.00,Wunderground v.1.15,2013-04-20 04:30:00,
2013-04-19 22:35:00,56.5,48.7,30.20,South,169,1.0,2.0,75,0.00,,,0.00,Wunderground v.1.15,2013-04-20 04:35:00,
2013-04-19 22:40:00,55.9,47.7,30.19,South,169,1.0,2.0,74,0.00,,,0.00,Wunderground v.1.15,2013-04-20 04:40:00,
2013-04-19 22:45:00,56.1,48.6,30.20,South,169,1.0,2.0,76,0.00,,,0.00,Wunderground v.1.15,2013-04-20 04:45:00,
2013-04-19 22:50:00,56.6,48.8,30.19,South,169,0.0,2.0,75,0.00,,,0.00,Wunderground v.1.15,2013-04-20 04:50:00,
2013-04-19 22:55:00,56.5,48.3,30.20,South,169,0.0,2.0,74,0.00,,,0.00,Wunderground v.1.15,2013-04-20 04:55:00,
2013-04-19 23:00:00,56.5,48.7,30.19,South,169,0.0,2.0,75,0.00,,,0.00,Wunderground v.1.15,2013-04-20 05:00:00,
2013-04-19 23:06:00,56.6,48.8,30.19,South,169,0.0,2.0,75,0.00,,,0.00,Wunderground v.1.15,2013-04-20 05:06:00,
2013-04-19 23:10:00,56.3,48.1,30.19,South,169,0.0,0.0,74,0.00,,,0.00,Wunderground v.1.15,2013-04-20 05:10:00,
2013-04-19 23:15:00,56.3,48.5,30.19,South,169,0.0,0.0,75,0.00,,,0.00,Wunderground v.1.15,2013-04-20 05:15:00,
2013-04-19 23:20:00,56.2,48.4,30.19,South,169,0.0,0.0,75,0.00,,,0.00,Wunderground v.1.15,2013-04-20 05:20:00,
2013-04-19 23:25:00,56.3,48.1,30.19,SSE,153,0.0,0.0,74,0.00,,,0.00,Wunderground v.1.15,2013-04-20 05:25:00,
2013-04-19 23:35:00,56.6,47.3,30.19,NNE,28,1.0,3.0,71,0.00,,,0.00,Wunderground v.1.15,2013-04-20 05:35:00,
2013-04-19 23:40:00,56.9,46.4,30.19,NNE,33,3.0,4.0,68,0.00,,,0.00,Wunderground v.1.15,2013-04-20 05:40:00,
2013-04-19 23:45:00,57.4,44.9,30.19,NNE,27,4.0,5.0,63,0.00,,,0.00,Wunderground v.1.15,2013-04-20 05:45:00,
2013-04-19 23:50:00,57.9,45.0,30.19,NNE,32,5.0,7.0,62,0.00,,,0.00,Wunderground v.1.15,2013-04-20 05:50:00,